Location: Rotheul
(50.2849°N, 11.2349°E)
Time: 05:01:49
(UTC+02:00)

ISS - Pass Details

Date: 20 May 2018
Orbit: 402 x 407 km, 51.6° (Epoch: 25 May)

Event Time Altitude Azimuth Distance (km) Brightness Sun altitude
Rises 23:07:06 0° 228° (SW) 2,310 -0.1 -14.4°
Reaches altitude 10° 23:09:15 10° 220° (SW) 1,453 -1.2 -14.6°
Maximum altitude 23:12:18 37° 151° (SSE) 640 -3.4 -14.8°
Drops below altitude 10° 23:15:21 10° 81° (E) 1,458 -1.2 -15.1°
Sets 23:17:31 0° 73° (ENE) 2,320 -0.1 -15.2°
